Location: Proctor
(47.8934°N, 114.3048°W)
Time: 09:56:02
(UTC+00:00)

Transit 4A - Pass Details

Date: 30 June 2024
Orbit: 870 x 973 km, 66.8° (Epoch: 13 July)

Event Time Altitude Azimuth Distance (km) Brightness Sun altitude
Rises 07:54:57 0° 297° (WNW) 3,463 11.2 -18.9°
Reaches altitude 10° 07:59:09 10° 326° (NW) 2,534 10.9 -18.9°
Maximum altitude 08:01:35 13° 351° (N) 2,362 11.1 -18.8°
Drops below altitude 10° 08:04:01 10° 15° (NNE) 2,551 11.4 -18.8°
Sets 08:08:17 0° 44° (NE) 3,511 11.8 -18.7°
